Location: Gwatt
(46.7204°N, 7.6223°E)
Time: 08:48:45
(UTC+00:00)

Vanguard 3 - Pass Details

Date: 24 January 2021
Orbit: 508 x 3261 km, 33.3° (Epoch: 24 February)

Event Time Altitude Azimuth Distance (km) Brightness Sun altitude
Exits shadow 02:10:35 14° 121° (ESE) 3,131 10.3 -49.0°
Drops below altitude 10° 02:12:48 10° 109° (ESE) 3,680 10.8 -48.7°
Sets 02:18:25 0° 92° (E) 5,304 11.9 -47.8°
